User: anonymous   Login
Location: Donald C. Martin Observatory
(38.3885°N, 82.3916°W)
Time: 06:40:04
(UTC-04:00)
Language:

Cosmos 1484 Rocket - Orbit

View from above orbital plane
View from above orbital plane
View from above satellite
View from above satellite

Ground track
Ground track

The orbit data is extracted from the following two-line orbital elements,

1 14208U 83075B   15214.18394872  .00001040  00000-0  68402-4 0  9992
2 14208 097.3821 240.9942 0039900 334.2355 025.6886 15.09111519744141
Epoch (UTC): 02 August 2015 04:24:53
Eccentricity: 0.0039900
inclination: 97.3821°
perigee height: 511 km
apogee height: 566 km
right ascension of ascending node: 240.9942°
argument of perigee: 334.2355°
revolutions per day: 15.09111519
mean anomaly at epoch: 25.6886°
orbit number at epoch: 74414

The dashed part of the orbit path shows where the satellite is in the earth's shadow,  

DLR